Probability
29 45 55 61 61 65 65 61 61 65 58 61 58 58 58 61 61 52 52 52 45 48 45 42 32 23 23 26 19 16 10 6 10 13 19 16 13 16 16 23 23 13 19
35 39 58 58 58 61 65 65 61 65 58 58 58 61 58 58 55 52 48 48 55 42 45 35 32 29 23 26 19 16 19 13 10 6 3 6 16 19 13 16 19 13 19
32 35 55 65 55 61 61 65 58 58 61 61 61 58 58 52 52 45 48 45 55 42 39 29 26 26 26 19 16 19 13 10 6 3 3 3 6 13 16 16 16 16 13
32 39 42 58 55 55 61 58 52 61 58 58 58 55 52 48 45 45 42 39 35 32 29 23 19 19 19 16 19 16 10 6 0 0 0 3 6 6 6 10 13 13 13
35 42 52 55 52 55 61 61 61 58 58 61 58 52 45 48 42 39 39 35 35 32 35 23 19 16 16 16 16 13 10 0 0 0 0 3 10 10 10 6 6 6 10
35 45 52 55 55 58 58 58 61 55 55 55 45 45 42 35 32 35 32 35 35 32 32 23 19 16 16 16 10 10 3 0 0 0 0 0 10 10 6 6 6 3 3
39 45 52 55 55 55 55 55 58 52 52 52 45 42 39 35 32 29 32 39 39 32 26 19 19 16 16 10 10 3 0 0 0 0 0 3 10 6 6 3 3 3 3
42 45 48 52 55 55 55 55 55 55 48 45 48 48 42 42 32 29 35 39 29 29 23 23 16 19 13 10 10 6 0 0 0 0 0 6 13 10 3 3 3 3 3
42 42 48 52 45 52 55 55 55 52 52 45 45 42 39 32 35 35 29 32 29 19 19 19 16 10 10 6 6 0 0 0 0 3 0 6 10 3 3 3 3 3 3
39 42 45 35 39 42 42 39 39 39 39 39 32 29 19 10 13 19 19 35 32 29 23 16 13 6 6 6 3 0 0 0 3 0 0 6 6 3 3 3 3 3 3
35 39 42 39 35 35 32 26 29 29 26 26 23 3 3 13 10 10 6 10 19 23 16 10 10 10 3 3 3 0 0 0 0 0 0 0 3 3 0 3 3 3 3
42 42 42 39 35 35 32 29 35 32 29 19 16 19 19 13 10 6 6 3 6 6 3 6 3 3 0 0 0 0 0 0 0 0 0 0 0 0 0 0 3 3 3
35 35 39 35 32 35 32 32 32 32 35 26 19 19 23 10 6 10 10 6 10 3 6 3 0 0 0 3 3 0 0 0 3 6 0 0 0 0 0 0 3 3 3
26 29 32 39 35 32 29 29 35 35 32 26 26 19 13 10 6 6 13 16 16 13 10 10 10 0 0 0 0 0 0 0 0 0 0 0 0 0 0 0 3 0 0
26 29 29 32 35 29 26 29 23 29 23 19 26 19 10 10 10 13 13 16 16 16 13 13 6 3 3 0 0 0 0 0 0 0 0 0 0 0 0 3 0 0 0
26 29 26 29 26 26 23 26 32 26 26 23 23 19 16 10 10 10 10 10 16 13 13 13 6 3 3 0 0 0 0 0 0 0 0 0 0 0 0 0 0 0 0
19 26 26 23 26 23 23 19 10 23 23 13 13 13 16 6 6 3 3 6 10 13 6 10 0 3 0 0 0 0 0 0 0 0 0 0 0 0 0 0 0 0 0
13 23 26 23 23 19 19 16 6 10 13 10 13 10 6 6 3 3 3 3 6 6 6 3 0 0 0 0 0 0 0 0 0 0 0 0 0 0 0 0 0 0 0
6 19 23 23 23 23 16 16 3 6 13 10 6 6 6 10 10 0 3 3 6 6 3 0 0 0 0 0 0 0 0 0 0 0 0 0 0 0 0 0 0 0 0
0 0 10 10 13 10 10 3 3 3 3 3 3 3 3 6 6 0 0 0 0 3 3 3 0 0 0 0 0 0 0 0 0 0 0 0 0 0 0 0 0 0 0
0 3 3 0 3 6 3 0 0 0 0 0 0 0 0 3 3 3 0 0 0 0 0 0 0 0 0 0 0 0 0 0 0 0 0 0 0 0 0 0 0 0 0
0 0 3 0 3 3 3 3 0 0 0 0 0 0 0 0 0 0 0 0 0 0 0 0 0 0 0 0 0 0 0 0 0 0 0 0 0 0 0 0 0 0 0
0 0 0 0 0 0 3 3 0 0 0 0 0 0 0 0 0 0 0 0 0 0 0 0 0 0 0 0 0 0 0 0 0 0 0 0 0 0 0 0 0 0 0
0 0 0 3 0 3 6 0 0 0 0 0 0 0 0 0 0 0 0 0 0 0 0 0 0 0 0 0 0 0 0 0 0 0 0 0 0 0 0 0 0 0 0
0 0 0 0 3 3 3 0 0 0 0 0 0 0 0 0 0 0 0 0 0 0 0 0 0 0 0 0 0 0 0 0 0 0 0 0 0 0 0 0 0 0 0
0 0 0 0 0 3 3 3 0 0 0 0 0 0 0 0 0 0 0 0 0 0 0 0 0 0 0 0 0 0 0 0 0 0 0 0 0 0 0 0 0 0 0
Height
5850 5851 5853 5854 5855 5856 5857 5859 5860 5861 5862 5863 5864 5864 5865 5866 5867 5867 5868 5868 5869 5870 5870 5871 5872 5873 5874 5874 5875 5875 5876 5876 5876 5877 5877 5877 5877 5877 5877 5877 5877 5877 5876
5848 5849 5850 5852 5853 5854 5856 5857 5858 5859 5860 5861 5862 5863 5864 5865 5866 5867 5867 5868 5869 5869 5870 5871 5871 5872 5873 5874 5875 5875 5876 5876 5876 5877 5877 5877 5877 5877 5877 5877 5877 5877 5877
5845 5846 5847 5849 5851 5852 5853 5855 5856 5857 5859 5860 5861 5862 5863 5864 5865 5866 5866 5867 5868 5868 5869 5870 5871 5871 5872 5873 5874 5875 5875 5876 5876 5877 5877 5877 5877 5877 5877 5877 5877 5877 5877
5842 5843 5844 5846 5848 5849 5851 5852 5854 5855 5856 5858 5859 5860 5861 5862 5863 5864 5865 5866 5867 5868 5868 5869 5870 5871 5871 5872 5873 5874 5875 5875 5876 5876 5876 5876 5877 5877 5877 5877 5877 5877 5877
5838 5839 5841 5843 5845 5846 5848 5849 5851 5853 5854 5856 5857 5858 5859 5860 5862 5863 5864 5865 5865 5866 5867 5868 5869 5869 5870 5871 5872 5873 5874 5874 5875 5875 5876 5876 5876 5876 5876 5876 5876 5876 5876
5834 5835 5837 5839 5841 5843 5844 5846 5848 5850 5851 5853 5854 5856 5857 5858 5860 5861 5862 5863 5864 5865 5866 5866 5867 5868 5869 5870 5871 5872 5873 5873 5874 5874 5875 5875 5875 5875 5876 5876 5876 5876 5876
5829 5831 5833 5835 5837 5839 5841 5843 5844 5846 5848 5850 5851 5853 5854 5856 5857 5859 5860 5861 5862 5863 5864 5865 5866 5867 5868 5869 5869 5870 5871 5872 5872 5873 5873 5874 5874 5874 5874 5875 5875 5875 5875
5824 5826 5828 5830 5832 5834 5837 5839 5841 5842 5844 5846 5848 5850 5851 5853 5854 5856 5857 5859 5860 5861 5862 5863 5864 5865 5866 5867 5868 5869 5869 5870 5871 5871 5872 5872 5872 5873 5873 5873 5873 5873 5873
5819 5821 5823 5825 5827 5830 5832 5834 5836 5838 5840 5842 5844 5846 5848 5849 5851 5853 5854 5856 5857 5858 5860 5861 5862 5863 5864 5865 5866 5866 5867 5868 5869 5869 5870 5870 5871 5871 5871 5871 5872 5871 5871
5813 5815 5818 5820 5822 5825 5827 5829 5831 5834 5836 5838 5840 5842 5844 5846 5847 5849 5851 5853 5854 5855 5857 5858 5859 5860 5861 5862 5863 5864 5865 5866 5866 5867 5868 5868 5868 5869 5869 5869 5869 5869 5869
5807 5810 5812 5815 5817 5820 5822 5824 5826 5829 5831 5833 5835 5837 5839 5841 5843 5845 5847 5849 5850 5852 5853 5854 5856 5857 5858 5859 5860 5861 5862 5863 5864 5864 5865 5865 5866 5866 5866 5866 5867 5867 5866
5801 5804 5806 5809 5812 5814 5816 5819 5821 5823 5826 5828 5830 5832 5835 5837 5839 5841 5843 5844 5846 5848 5849 5851 5852 5853 5855 5856 5857 5858 5859 5860 5860 5861 5861 5862 5863 5863 5863 5863 5863 5863 5863
5794 5797 5800 5803 5805 5808 5811 5813 5815 5818 5820 5823 5825 5827 5829 5832 5834 5836 5838 5840 5841 5843 5845 5846 5848 5849 5850 5852 5853 5854 5855 5856 5857 5857 5858 5858 5859 5859 5860 5860 5860 5860 5860
5787 5790 5793 5796 5799 5801 5804 5807 5809 5812 5815 5817 5820 5822 5824 5826 5828 5831 5833 5835 5836 5838 5840 5841 5843 5844 5846 5847 5848 5850 5850 5851 5852 5853 5853 5854 5855 5855 5855 5856 5856 5856 5856
5780 5783 5786 5789 5792 5795 5797 5800 5803 5806 5808 5811 5814 5816 5818 5821 5823 5825 5827 5829 5831 5833 5835 5837 5838 5840 5841 5842 5844 5845 5846 5847 5848 5848 5849 5850 5850 5851 5851 5851 5851 5852 5852
5772 5775 5778 5782 5785 5788 5791 5794 5796 5799 5802 5804 5807 5810 5812 5814 5817 5819 5821 5824 5826 5828 5830 5831 5833 5835 5836 5837 5839 5840 5841 5842 5843 5844 5844 5845 5845 5846 5846 5846 5847 5847 5847
5763 5767 5770 5774 5777 5780 5783 5786 5789 5792 5795 5798 5800 5803 5805 5808 5810 5813 5815 5818 5820 5822 5824 5826 5828 5829 5831 5832 5833 5835 5836 5837 5838 5838 5839 5840 5840 5841 5841 5841 5841 5841 5841
5754 5758 5761 5765 5769 5772 5775 5778 5781 5784 5787 5790 5793 5795 5798 5801 5804 5806 5809 5811 5814 5816 5818 5820 5822 5824 5825 5826 5828 5829 5830 5831 5832 5833 5834 5834 5835 5835 5836 5836 5836 5836 5836
5745 5749 5753 5757 5760 5764 5767 5770 5773 5776 5780 5783 5785 5788 5791 5794 5797 5799 5802 5805 5807 5809 5812 5814 5816 5817 5819 5821 5822 5823 5824 5825 5826 5827 5828 5829 5829 5830 5830 5830 5830 5830 5830
5736 5740 5744 5748 5751 5755 5758 5761 5765 5768 5772 5775 5778 5780 5783 5786 5789 5792 5795 5798 5800 5803 5805 5807 5809 5811 5812 5814 5816 5817 5818 5819 5820 5821 5822 5822 5823 5823 5824 5824 5824 5824 5824
5726 5731 5735 5739 5742 5746 5750 5753 5757 5760 5764 5767 5769 5772 5775 5778 5782 5785 5788 5790 5793 5795 5798 5800 5802 5804 5805 5807 5809 5810 5811 5812 5813 5814 5815 5816 5816 5817 5817 5817 5818 5818 5818
5716 5721 5725 5729 5733 5737 5741 5745 5748 5752 5755 5758 5761 5764 5767 5770 5774 5777 5780 5783 5786 5788 5790 5793 5795 5797 5798 5800 5802 5802 5804 5806 5806 5807 5808 5809 5809 5810 5810 5811 5811 5811 5811
5705 5710 5715 5719 5723 5727 5731 5735 5739 5742 5746 5749 5752 5756 5759 5762 5765 5769 5772 5775 5777 5780 5783 5785 5787 5789 5791 5793 5794 5796 5797 5798 5799 5800 5800 5801 5802 5802 5803 5803 5803 5803 5803
5694 5699 5704 5709 5713 5717 5721 5725 5730 5734 5738 5741 5744 5747 5750 5754 5757 5761 5764 5766 5769 5772 5774 5777 5779 5781 5783 5785 5786 5788 5789 5790 5791 5792 5793 5793 5794 5794 5795 5795 5795 5795 5795
5682 5687 5692 5697 5702 5707 5711 5716 5720 5724 5728 5732 5735 5738 5742 5745 5749 5752 5755 5758 5761 5763 5766 5769 5771 5773 5775 5777 5779 5780 5781 5782 5783 5784 5785 5786 5786 5787 5787 5787 5787 5787 5787
5670 5676 5681 5686 5691 5696 5701 5705 5710 5715 5719 5723 5726 5729 5733 5737 5741 5744 5747 5750 5753 5755 5758 5761 5763 5765 5767 5769 5771 5772 5774 5775 5776 5776 5777 5778 5778 5778 5778 5779 5778 5778 5778
Wind_Speed
15 15 15 15 15 15 14 14 13 12 11 10 10 10 10 10 9 9 9 9 8 8 8 8 8 8 7 7 6 5 5 4 4 3 3 3 3 3 4 4 4 4 5
17 17 17 17 16 16 16 15 14 13 12 11 11 11 10 10 10 9 9 9 8 8 8 8 8 8 8 7 6 6 5 5 4 3 3 2 2 2 2 3 3 3 3
18 18 18 18 18 17 17 17 16 15 14 13 13 12 11 11 11 10 10 9 9 8 8 9 8 8 8 8 7 7 6 5 4 4 3 3 2 1 1 1 1 2 2
20 20 20 20 19 19 18 18 17 17 16 15 14 13 13 12 12 11 11 10 10 9 9 8 9 8 9 8 7 7 7 6 5 4 4 3 2 2 2 1 1 0 1
23 22 22 21 21 20 19 19 18 18 17 17 16 15 14 14 13 12 12 12 11 10 9 9 9 9 9 9 8 8 7 7 6 6 5 4 4 3 3 3 3 2 2
24 24 24 23 23 22 22 21 20 20 19 18 18 17 16 15 15 14 13 13 12 11 10 10 9 9 9 9 9 9 8 8 7 7 7 6 5 5 5 5 4 4 4
26 26 25 25 25 24 24 23 22 21 21 20 19 19 18 17 17 15 15 14 14 13 12 11 11 10 10 10 10 10 9 9 9 8 8 7 7 7 6 6 6 6 6
27 27 26 26 26 26 25 25 24 23 23 22 21 21 20 19 19 18 17 16 16 14 14 13 13 12 12 11 11 11 10 10 10 9 9 9 9 8 8 8 8 8 8
28 28 27 27 27 27 27 26 26 25 25 24 23 22 21 21 20 20 19 18 18 17 16 15 14 14 14 13 13 13 12 12 11 11 11 11 11 10 10 9 10 9 9
30 29 29 28 28 28 28 27 27 27 26 25 25 24 23 23 22 22 21 20 19 19 18 18 17 16 15 15 15 14 14 13 13 13 13 13 13 12 12 11 11 12 11
31 31 30 29 28 28 28 28 28 27 27 27 26 26 25 24 24 23 23 22 22 21 21 20 20 19 18 17 17 16 16 16 15 15 15 15 15 15 14 14 13 13 13
32 32 31 31 30 29 29 29 29 29 28 28 27 27 27 26 25 24 24 24 23 23 23 23 22 21 20 20 19 19 18 18 18 17 17 17 17 17 17 17 16 15 15
33 33 33 33 32 31 31 30 30 30 30 29 29 28 28 27 27 26 25 25 25 25 25 24 24 23 22 21 21 21 20 20 20 20 20 19 19 20 19 19 18 18 18
34 34 34 34 34 33 32 32 32 31 31 30 30 30 30 29 28 28 27 26 26 26 26 26 25 24 23 22 22 22 22 22 21 21 21 21 21 21 21 21 20 20 20
35 35 35 34 35 34 34 33 33 32 32 31 31 31 31 31 30 29 29 28 27 27 27 27 26 25 24 24 23 23 24 23 23 23 22 22 22 22 22 22 22 22 22
36 36 36 35 35 35 35 34 34 34 33 33 32 32 32 32 31 31 29 29 28 28 27 27 27 27 26 25 25 24 23 24 23 23 23 24 24 24 24 24 24 24 24
38 37 37 37 36 36 37 36 35 35 35 34 34 33 33 33 33 32 32 30 30 29 29 28 28 28 28 27 27 26 25 25 25 25 25 25 25 25 25 25 25 25 26
40 39 39 38 38 37 37 38 36 35 35 34 35 34 34 34 33 33 32 32 31 31 30 30 29 29 28 28 27 27 27 27 27 26 26 26 26 26 26 26 26 26 26
42 41 40 40 39 38 38 38 38 36 35 35 35 35 35 34 34 34 33 32 32 32 31 31 30 30 29 28 28 28 28 27 28 28 27 27 27 28 28 28 28 27 27
44 43 42 41 40 40 39 39 39 38 36 35 36 36 36 36 35 35 35 33 33 33 32 32 32 31 31 30 29 29 29 29 29 29 29 28 28 28 29 29 29 29 29
46 45 44 43 42 41 40 40 39 39 37 36 36 38 38 37 36 36 36 34 34 34 34 33 33 33 32 32 31 31 31 30 30 30 31 30 30 30 30 30 30 30 30
47 47 46 45 44 43 41 40 40 40 39 38 38 39 39 38 37 37 36 36 35 35 35 34 34 34 34 33 33 33 32 32 32 32 32 32 32 32 31 31 31 31 31
49 48 47 46 45 45 44 42 42 42 41 40 39 39 39 38 37 37 37 37 36 36 36 36 35 35 34 34 33 33 33 33 33 33 33 33 33 33 33 33 33 33 33
50 49 48 47 47 46 45 44 43 42 41 40 39 40 40 40 39 38 38 37 37 37 37 36 36 36 35 35 34 34 34 34 33 34 34 34 34 34 34 34 34 35 34
51 50 50 49 48 47 46 45 43 43 42 41 41 41 42 41 40 38 38 38 37 37 37 36 36 37 36 36 36 35 35 34 34 35 34 34 35 35 35 35 36 36 36
51 51 50 50 49 48 47 46 45 44 43 43 42 43 43 42 41 40 39 39 38 38 38 37 37 37 37 37 36 36 36 35 35 36 36 36 36 36 36 36 37 37 37
Wind_Direction
225 224 222 219 216 214 211 212 211 209 207 202 200 197 193 191 188 184 179 176 177 174 173 173 173 173 173 172 169 167 165 163 153 142 131 117 103 94 90 87 81 77 78
229 226 223 220 219 218 216 215 214 214 212 209 207 205 201 198 196 192 187 185 188 187 184 184 183 182 181 182 181 180 177 175 174 167 163 151 129 111 102 95 85 76 75
230 228 225 222 221 221 220 219 217 217 216 214 212 211 208 205 204 201 197 195 195 195 195 195 195 193 193 192 190 187 187 188 190 189 188 182 175 162 143 112 96 72 62
231 228 226 224 223 223 223 222 221 219 218 217 215 214 212 210 209 208 205 203 203 204 205 204 204 203 200 198 199 198 198 199 202 205 206 202 200 205 217 226 235 297 359
232 230 228 226 225 225 224 223 222 221 221 220 218 217 216 214 213 213 212 209 209 211 213 213 210 210 208 206 205 206 208 209 212 214 216 217 218 224 232 242 254 269 287
232 231 229 227 226 226 225 225 224 223 223 222 221 220 220 218 217 217 217 216 216 217 217 215 215 213 216 213 212 217 218 220 221 223 224 226 230 236 243 248 256 265 275
232 231 230 229 228 228 227 226 227 226 224 223 223 222 223 221 221 221 221 221 221 222 222 220 220 220 221 218 220 222 224 227 230 230 233 237 241 245 249 253 255 263 271
232 231 230 229 229 229 229 228 228 228 227 226 225 224 224 225 225 225 225 226 226 226 225 226 227 226 228 228 229 229 231 232 234 237 239 243 247 249 251 255 258 264 270
232 231 230 230 230 230 231 230 229 229 228 227 227 227 226 226 227 228 228 229 229 230 230 231 231 233 234 234 234 235 235 237 239 241 243 245 248 250 253 256 259 264 269
233 232 231 230 230 230 231 230 230 229 228 228 228 229 229 228 229 230 231 232 232 233 233 233 234 235 238 238 238 238 239 241 244 246 247 249 251 253 256 259 262 265 268
233 232 231 230 231 231 231 231 230 229 229 229 230 230 230 231 231 232 233 234 235 235 236 236 237 238 240 240 240 241 243 245 248 250 251 252 254 256 258 261 264 266 268
233 233 232 231 231 232 232 232 232 231 231 231 231 232 233 233 233 233 234 235 236 237 239 239 240 240 241 242 243 243 245 247 249 251 252 253 254 256 259 262 263 266 269
232 232 232 231 231 232 233 232 233 233 233 234 234 234 235 235 235 235 236 237 238 239 240 241 241 242 243 244 245 246 248 249 251 253 254 254 256 258 260 261 263 265 268
232 232 232 232 231 232 233 233 233 234 235 235 236 236 237 238 237 237 237 238 239 240 240 241 241 242 245 246 247 247 249 251 252 254 256 256 256 258 259 261 263 266 268
233 233 233 232 232 232 233 233 234 235 236 236 237 238 239 239 239 239 238 238 239 239 240 240 241 243 245 248 250 250 250 252 254 255 256 257 257 258 260 262 264 266 269
233 233 233 233 234 234 233 234 235 235 236 237 238 238 238 240 240 240 239 239 239 240 240 241 243 244 246 248 250 252 252 253 255 257 257 258 259 260 262 263 265 267 269
233 233 234 233 234 234 234 235 237 237 237 238 239 238 239 240 240 240 240 240 240 241 242 244 245 246 248 250 251 252 253 253 255 257 259 260 261 262 263 265 266 267 269
233 233 233 233 234 235 236 236 237 238 238 239 238 239 240 240 240 240 240 241 242 243 244 245 246 247 248 249 251 252 253 254 255 257 259 260 261 263 264 266 266 268 270
233 234 234 234 235 236 237 237 237 238 238 240 239 239 240 240 240 240 240 242 242 242 244 245 247 247 248 250 252 253 255 255 256 257 258 260 262 264 265 266 267 268 270
233 234 234 235 235 236 237 237 237 238 239 240 240 239 239 240 240 240 241 242 242 243 244 245 247 248 249 251 253 255 255 256 257 258 259 261 263 265 266 267 267 268 270
233 234 234 235 235 236 237 238 238 238 239 241 241 239 239 239 239 239 240 242 243 243 244 245 247 249 250 251 254 255 256 257 258 259 260 262 263 265 267 268 269 269 271
233 233 234 235 235 236 236 237 238 238 239 240 241 239 239 239 239 240 240 242 243 244 244 245 247 249 251 252 254 255 256 257 258 260 261 263 264 266 268 269 270 271 271
233 234 234 234 235 236 236 236 237 238 239 241 241 239 238 237 238 239 240 242 244 245 245 245 248 250 251 252 254 256 256 257 259 260 261 263 264 266 268 269 270 272 272
234 234 234 234 235 235 236 236 237 239 240 241 240 238 237 237 237 238 240 242 243 244 244 246 248 250 251 252 253 256 258 259 259 260 262 263 265 266 268 269 270 273 274
234 234 234 234 234 235 236 236 236 238 239 239 238 237 237 237 237 238 241 243 243 243 244 247 249 249 251 252 254 256 258 259 260 261 261 263 265 267 269 270 271 272 274
233 234 234 234 234 234 235 236 236 238 238 239 238 238 237 237 238 240 241 242 243 244 245 248 249 249 251 253 254 256 257 259 260 261 262 263 265 267 268 270 272 273 273